Find Kuiper-00179

NORAD ID: 67136 Int'l Des: 2025-301 Owner: KUIP Country: US Constellation: kuiper operational
LEOCIRCULAR

Live Position

Loading 3D Globe...

About Kuiper-00179

Description loading...

Upcoming Passes

Passes for default location (London). Set your location on the main map for personalized predictions.

Altitude History

Loading altitude history...

Two-Line Element Set

1 67136U 25301D 26105.83024353 .00068167 00000-0 94978-2 0 9993
2 67136 51.9021 261.3262 0001501 266.1692 93.9098 14.77085479 19419
Epoch: Apr 15, 2026 • Age: 43 hours

Current Status

Altitude 644.9 km
Velocity 7.54 km/s
Sub-Earth Point 51.50°N, 69.53°W
Launch Date Dec 16, 2025
Age 0.3 years
Type internet

Technical Details

Classification Payload
Mass 490.00 kg
Dry Mass 490.00 kg
Total Mass 490.00 kg
Length 1.80 m
Diameter 0.70 m
Span 5.00 m
Shape Box + 2 pan
Manufacturer KUIP
Bus Type Kuiper
Phase Status In Orbit
Owner/State KUIP/US

Most Searched